Wind_Speed
11 11 14 19 24 28 31 28 29 17 25 14 21 18 17 20 27 36 36 45 44 43 39 38 35 36 41 43 42 41 41 40 38 38 36 36 36 38 41 39 39 41 44 47
9 11 12 11 17 18 23 27 21 18 14 10 5 1 7 11 18 22 32 37 39 38 34 32 34 38 40 40 39 39 40 39 38 35 35 33 37 38 37 38 40 43 46 47
7 6 5 12 14 15 21 14 14 13 11 6 1 5 10 12 18 24 31 34 33 36 33 31 32 35 35 36 36 36 35 35 33 32 33 35 33 35 37 40 42 44 46 48
6 9 8 15 14 18 14 10 9 6 9 13 16 13 13 14 20 25 28 27 29 32 31 29 30 32 32 30 30 29 29 28 30 30 30 31 33 36 38 40 42 44 47 51
5 8 9 13 13 14 15 11 5 2 3 5 9 12 14 14 16 23 24 25 23 22 22 20 20 23 25 26 25 25 25 26 28 29 29 31 33 35 38 40 43 47 49 52
4 6 8 7 7 11 7 8 9 4 3 9 10 14 14 10 6 29 24 24 22 19 19 21 21 22 23 25 26 27 25 24 24 26 28 30 32 35 39 43 46 48 49 51
4 5 7 7 7 10 10 11 7 9 8 11 14 10 11 9 8 23 29 26 23 23 24 24 24 24 23 21 20 20 20 21 22 25 28 31 35 39 41 44 45 47 51 52
2 2 4 5 7 9 9 8 10 8 14 12 10 12 14 13 12 12 15 14 12 13 14 14 15 13 9 9 12 15 18 21 24 28 31 34 37 39 40 42 46 48 50 52
4 3 3 2 3 4 7 9 7 4 6 9 10 11 13 12 12 8 13 10 8 7 6 4 2 4 8 12 15 18 21 24 27 29 32 34 35 37 41 44 47 49 50 52
3 2 3 3 2 1 3 5 5 5 4 3 2 4 6 8 8 5 2 2 1 2 3 5 8 11 13 15 18 19 21 24 27 29 30 32 36 41 43 46 48 48 49 51
9 5 2 3 3 3 2 3 4 4 4 3 3 3 2 1 1 2 3 3 4 4 7 8 10 12 12 13 16 20 23 25 27 29 32 36 39 42 45 45 46 47 50 55
11 9 7 8 5 3 1 1 3 2 0 1 0 1 3 3 2 1 2 4 4 4 5 6 8 11 15 18 21 23 24 26 28 32 34 38 41 42 42 43 46 50 55 60
14 13 10 9 7 4 5 5 4 3 3 4 6 5 5 4 3 4 2 1 2 4 8 11 14 17 19 21 22 23 25 27 30 34 37 39 38 39 42 46 51 56 60 66
13 14 12 10 9 11 9 6 4 5 2 4 6 7 8 6 4 2 3 5 7 10 13 16 18 19 21 22 23 24 27 30 33 36 35 35 37 40 45 50 55 60 65 70
10 9 8 11 15 14 10 9 8 7 6 8 9 7 6 3 1 5 8 10 12 14 17 18 19 19 20 21 24 27 30 32 33 32 33 35 40 45 49 55 59 63 68 74
12 12 10 11 11 7 9 10 11 9 9 12 10 5 3 3 8 11 13 14 16 16 16 17 19 20 21 24 27 30 31 29 29 32 36 40 45 49 54 58 63 68 74 80
14 12 12 14 12 10 10 9 10 11 12 13 9 9 9 10 13 15 16 15 15 17 18 19 20 22 25 27 29 28 26 28 31 36 40 45 50 54 58 63 69 75 80 87
12 11 12 11 11 11 9 8 9 12 14 12 11 11 12 14 16 16 16 17 18 18 18 20 22 24 27 27 24 24 27 32 36 40 46 50 54 58 63 69 76 80 86 82
10 10 12 14 14 13 13 13 12 12 11 10 11 12 15 16 16 17 17 17 18 19 20 22 24 26 24 23 24 27 31 35 41 46 50 53 58 64 68 76 83 88 79 55
11 12 12 12 12 12 12 11 9 9 10 12 14 16 16 16 17 18 17 19 20 21 22 24 25 22 22 24 28 31 35 40 45 49 54 59 65 68 74 83 87 77 55 43
12 13 13 14 13 13 13 13 13 14 16 16 16 17 18 19 19 19 18 19 20 22 24 23 21 22 24 27 31 35 40 44 49 56 60 64 71 74 81 86 79 56 44 29
15 16 16 17 18 18 18 20 21 21 20 20 20 21 22 23 20 18 18 19 21 22 20 20 22 24 26 31 35 40 45 50 56 60 64 69 75 81 85 80 59 45 31 13
19 20 19 19 19 19 20 21 21 22 22 22 23 22 20 18 17 17 18 21 20 19 20 21 23 26 31 36 41 45 49 53 60 65 69 75 82 85 80 62 45 31 12 6
16 17 19 20 20 21 21 22 20 19 18 17 17 17 16 16 17 19 20 18 18 20 21 23 27 31 36 40 44 47 52 58 64 69 74 81 86 85 61 44 30 11 9 11
19 18 19 21 21 21 22 22 21 20 20 19 18 18 18 19 20 18 17 18 19 20 23 27 30 34 38 42 46 51 56 61 68 72 80 85 86 64 49 33 10 12 14 10
26 26 24 23 21 22 22 22 21 20 20 20 21 21 21 21 18 17 18 19 20 22 26 29 32 37 42 45 50 55 59 65 71 80 82 85 68 54 34 7 14 18 14 11
28 27 27 26 25 23 23 22 22 22 22 22 23 22 21 19 18 18 19 20 22 25 27 30 35 41 44 48 52 56 62 68 75 78 80 67 52 31 5 17 19 16 12 8
Wind_Direction
287 306 317 319 305 303 308 325 295 318 327 317 258 256 242 235 218 213 210 189 195 198 204 208 209 214 217 219 223 227 233 240 247 254 258 261 266 271 277 277 280 282 286 289
298 321 307 316 317 339 335 337 322 318 336 358 341 236 154 180 203 204 195 181 183 190 194 197 205 212 216 221 221 226 235 244 252 257 260 265 269 273 275 277 281 285 288 290
335 315 291 323 341 350 350 10 350 347 2 346 26 181 186 177 165 164 165 167 175 184 186 198 207 212 216 219 224 233 242 251 257 259 260 265 269 271 275 280 284 287 290 295
40 67 51 23 31 8 2 34 47 75 74 51 62 89 102 124 141 154 159 167 175 181 192 203 208 210 215 220 230 240 246 250 252 257 260 263 269 275 280 284 287 292 295 297
56 55 65 43 39 16 12 1 70 75 19 16 71 98 108 123 161 151 157 160 166 175 183 193 200 207 215 224 231 237 241 246 249 255 263 270 276 280 284 290 293 295 296 298
52 48 52 45 35 25 19 60 32 306 68 82 118 123 126 112 153 146 152 158 163 173 182 191 197 205 213 221 228 235 242 248 256 266 273 277 283 288 291 293 294 296 297 299
41 20 14 18 7 18 14 54 37 68 83 147 144 124 134 133 136 154 153 169 179 180 186 191 200 208 218 221 227 239 252 263 271 275 281 286 289 291 292 294 295 297 300 302
26 358 346 329 353 349 6 41 62 54 79 95 119 114 103 102 96 107 134 152 165 171 179 188 195 202 218 250 262 265 268 273 278 283 286 288 290 292 293 295 298 301 302 304
50 28 354 300 288 328 341 349 33 40 9 104 124 140 151 148 170 167 148 162 146 139 147 170 213 259 266 264 267 269 274 279 284 287 289 291 292 294 297 301 302 302 304 307
348 330 324 284 231 255 332 327 335 11 46 350 207 176 169 181 182 192 166 126 52 10 318 287 269 264 265 269 273 279 284 287 288 290 293 295 297 300 301 302 302 304 307 309
259 282 228 195 165 140 71 7 335 356 13 43 21 12 345 308 171 172 199 240 241 253 263 269 270 273 275 279 285 287 289 292 294 295 297 299 300 301 302 304 306 308 310 311
252 245 214 210 208 192 216 301 307 305 312 337 141 185 173 155 170 192 246 265 268 266 276 280 281 282 286 290 294 297 296 297 298 299 300 301 303 305 306 308 310 310 311 313
242 236 224 221 226 229 239 273 250 271 259 249 245 240 234 258 199 153 132 38 300 280 278 284 293 297 299 299 299 298 299 299 300 302 304 306 309 310 311 312 313 314 315 317
219 218 221 232 246 271 274 251 238 231 202 260 233 205 169 161 148 152 267 288 305 312 308 304 302 301 301 302 301 301 302 303 304 307 310 312 312 313 313 314 315 315 316 318
228 231 250 252 274 268 258 227 217 219 234 232 208 172 147 135 297 312 321 320 316 310 307 302 301 302 303 303 303 304 305 308 310 312 314 314 314 314 315 315 316 318 320 320
238 258 271 260 270 260 208 204 216 278 253 223 186 183 212 274 318 321 316 314 312 309 306 306 306 306 306 307 307 308 310 312 314 316 315 315 316 317 317 319 321 320 321 321
245 252 245 247 255 240 220 241 247 241 247 209 203 229 245 280 303 307 309 310 310 308 309 310 308 307 307 307 309 312 314 315 316 316 317 317 318 319 320 321 321 321 321 322
238 236 243 229 240 228 244 250 237 231 214 218 241 262 282 294 300 304 307 308 309 310 309 306 306 307 309 311 314 314 316 318 318 319 319 319 321 322 322 323 323 323 324 327
231 232 238 237 237 229 225 228 222 227 240 250 264 280 290 296 299 301 305 307 311 310 308 307 307 311 313 314 314 316 319 320 320 320 321 321 322 324 325 327 327 326 328 325
226 231 231 228 223 220 223 225 232 247 260 270 281 288 290 292 295 300 303 307 308 306 306 309 312 313 313 314 316 318 319 320 322 323 325 326 327 327 328 327 329 330 327 325
240 241 243 242 242 242 249 255 261 270 277 280 279 280 284 287 288 289 296 303 303 306 309 311 311 312 314 315 318 318 319 322 325 327 329 330 330 328 327 329 331 328 326 324
251 251 252 253 256 260 259 263 262 267 270 272 275 278 281 282 283 291 300 302 305 307 307 308 310 310 312 315 316 317 320 322 327 330 330 331 329 328 328 329 327 326 325 317
248 248 249 253 257 259 260 261 266 274 276 273 274 277 282 286 291 296 297 300 303 304 305 307 307 309 312 314 317 321 325 328 330 331 330 330 329 328 330 328 325 324 319 166
254 257 259 258 259 261 263 267 270 272 275 278 280 283 286 288 289 292 297 299 302 303 304 305 308 312 316 319 322 326 328 330 331 331 331 330 329 332 327 327 325 319 157 148
256 260 258 257 258 259 262 266 272 276 278 279 280 283 285 287 291 293 293 297 299 301 304 308 313 316 318 323 328 328 329 331 332 332 332 332 335 329 328 326 320 153 145 138
254 255 259 260 259 260 261 264 267 270 273 273 276 279 283 287 285 287 291 295 298 304 309 313 316 320 321 325 327 329 331 331 332 334 335 337 332 329 329 332 148 145 137 131
254 253 253 255 256 259 261 263 266 266 268 271 273 275 280 275 279 284 290 293 299 305 309 313 318 322 323 324 328 330 332 331 333 336 338 334 333 338 41 136 142 139 134 119
Height
5606 5604 5599 5592 5586 5580 5572 5565 5553 5548 5535 5531 5526 5524 5525 5527 5531 5539 5546 5556 5568 5582 5593 5604 5613 5621 5626 5631 5636 5642 5646 5649 5652 5654 5655 5655 5654 5654 5652 5650 5647 5644 5640 5636
5602 5598 5595 5590 5582 5576 5570 5562 5553 5547 5540 5532 5528 5527 5526 5528 5533 5538 5547 5557 5569 5580 5592 5601 5609 5615 5621 5627 5632 5637 5641 5644 5646 5647 5648 5647 5647 5645 5643 5641 5638 5635 5631 5627
5598 5596 5592 5588 5581 5576 5570 5563 5557 5550 5544 5537 5532 5530 5530 5532 5536 5544 5553 5563 5572 5582 5592 5599 5606 5612 5618 5624 5629 5633 5637 5639 5640 5641 5641 5640 5638 5637 5635 5632 5629 5626 5621 5616
5597 5595 5592 5585 5581 5577 5571 5566 5561 5556 5551 5546 5542 5540 5539 5540 5545 5552 5561 5569 5576 5584 5592 5598 5603 5609 5616 5622 5627 5630 5632 5633 5634 5633 5633 5631 5630 5628 5626 5624 5620 5616 5611 5605
5596 5593 5591 5587 5582 5579 5573 5569 5565 5561 5558 5554 5552 5550 5549 5551 5554 5559 5566 5573 5580 5587 5593 5599 5604 5610 5615 5619 5622 5624 5625 5626 5627 5626 5625 5624 5623 5621 5618 5615 5611 5606 5600 5594
5594 5592 5591 5588 5584 5581 5576 5572 5568 5563 5562 5561 5559 5558 5560 5561 5560 5566 5573 5578 5584 5589 5594 5599 5603 5607 5611 5613 5616 5618 5619 5620 5620 5619 5618 5617 5615 5612 5609 5605 5601 5595 5589 5583
5594 5592 5590 5589 5586 5582 5582 5579 5573 5570 5567 5566 5567 5567 5567 5569 5570 5569 5573 5581 5585 5588 5592 5596 5600 5603 5607 5610 5612 5613 5613 5613 5613 5613 5612 5609 5607 5604 5600 5596 5590 5585 5579 5571
5594 5592 5592 5589 5587 5585 5583 5582 5579 5576 5574 5574 5574 5574 5575 5575 5576 5579 5581 5585 5587 5590 5593 5597 5600 5602 5604 5606 5607 5608 5609 5608 5608 5606 5605 5601 5598 5595 5591 5586 5580 5573 5566 5559
5594 5593 5591 5590 5588 5586 5583 5581 5582 5581 5579 5579 5580 5579 5579 5581 5581 5583 5583 5586 5589 5592 5595 5597 5599 5600 5602 5603 5604 5604 5603 5603 5602 5599 5596 5593 5590 5586 5581 5575 5569 5562 5556 5549
5593 5593 5591 5589 5588 5587 5586 5584 5583 5582 5582 5582 5582 5583 5583 5584 5584 5585 5587 5588 5589 5591 5593 5595 5597 5598 5599 5599 5600 5599 5598 5597 5595 5592 5588 5585 5581 5576 5570 5565 5559 5553 5546 5538
5591 5590 5590 5590 5589 5588 5587 5586 5584 5583 5583 5583 5583 5583 5584 5585 5585 5586 5588 5589 5590 5592 5593 5594 5595 5596 5596 5596 5595 5594 5592 5590 5587 5584 5580 5576 5571 5566 5561 5555 5549 5542 5535 5527
5587 5588 5588 5589 5589 5588 5587 5586 5585 5585 5584 5584 5585 5585 5586 5586 5587 5588 5589 5590 5591 5591 5592 5593 5593 5593 5592 5591 5590 5588 5585 5582 5579 5576 5572 5567 5562 5557 5551 5545 5539 5532 5523 5513
5583 5585 5586 5587 5587 5586 5586 5586 5586 5585 5585 5585 5585 5586 5586 5587 5588 5589 5589 5590 5590 5590 5590 5590 5590 5589 5588 5586 5584 5581 5578 5575 5571 5567 5563 5558 5553 5548 5541 5534 5526 5518 5508 5497
5580 5582 5583 5583 5584 5584 5584 5584 5584 5585 5584 5584 5584 5584 5585 5587 5588 5588 5589 5589 5588 5588 5588 5587 5585 5584 5582 5579 5577 5574 5571 5568 5564 5560 5555 5550 5545 5539 5533 5525 5516 5505 5494 5484
5577 5578 5579 5579 5580 5580 5580 5581 5582 5582 5583 5584 5584 5585 5586 5587 5587 5587 5587 5586 5585 5584 5583 5582 5580 5578 5575 5573 5570 5567 5564 5560 5556 5551 5547 5542 5536 5530 5522 5513 5504 5493 5482 5469
5574 5575 5576 5576 5577 5576 5577 5578 5579 5580 5581 5582 5583 5584 5585 5585 5585 5584 5584 5583 5581 5580 5578 5576 5574 5572 5569 5567 5564 5560 5557 5552 5548 5544 5539 5533 5526 5519 5510 5501 5490 5477 5465 5452
5571 5572 5572 5573 5573 5574 5575 5576 5577 5577 5578 5579 5580 5581 5582 5583 5582 5581 5580 5578 5577 5575 5573 5571 5569 5566 5563 5560 5557 5553 5550 5545 5541 5536 5530 5524 5516 5508 5498 5487 5475 5461 5447 5432
5567 5568 5568 5569 5571 5572 5573 5574 5574 5575 5576 5577 5578 5579 5579 5579 5578 5576 5575 5573 5572 5570 5568 5566 5563 5560 5557 5554 5550 5546 5542 5538 5534 5528 5522 5514 5505 5495 5484 5472 5459 5444 5428 5411
5564 5565 5566 5567 5568 5569 5570 5571 5572 5573 5574 5575 5575 5576 5575 5574 5573 5571 5570 5569 5567 5565 5563 5560 5557 5554 5551 5548 5544 5540 5536 5531 5526 5519 5511 5502 5492 5481 5469 5455 5440 5424 5408 5395
5561 5562 5563 5564 5565 5566 5567 5568 5569 5569 5570 5570 5570 5570 5570 5569 5567 5566 5565 5564 5562 5560 5557 5554 5551 5548 5545 5542 5538 5534 5529 5523 5517 5509 5500 5490 5478 5466 5452 5437 5421 5407 5394 5386
5557 5558 5559 5560 5561 5562 5563 5564 5565 5565 5565 5566 5565 5565 5564 5563 5562 5561 5560 5558 5556 5554 5552 5549 5546 5543 5539 5536 5532 5527 5521 5515 5507 5498 5487 5475 5463 5449 5435 5420 5405 5393 5384 5378
5554 5554 5555 5556 5557 5558 5559 5560 5560 5560 5560 5559 5559 5558 5558 5557 5556 5555 5554 5553 5551 5548 5546 5543 5540 5537 5534 5529 5525 5519 5512 5505 5496 5485 5473 5461 5447 5433 5419 5404 5391 5382 5376 5372
5549 5550 5551 5551 5552 5553 5553 5553 5553 5554 5553 5553 5553 5552 5551 5551 5550 5549 5548 5546 5544 5542 5540 5538 5535 5531 5527 5522 5517 5510 5502 5493 5483 5472 5460 5446 5432 5417 5401 5388 5379 5373 5370 5370
5544 5545 5545 5546 5546 5547 5547 5548 5548 5548 5548 5547 5547 5546 5546 5545 5544 5544 5542 5540 5539 5537 5534 5531 5528 5524 5520 5515 5508 5501 5492 5482 5471 5459 5446 5432 5416 5399 5385 5376 5370 5367 5368 5370
5538 5539 5539 5540 5540 5541 5541 5542 5542 5542 5542 5542 5541 5541 5540 5539 5539 5538 5536 5535 5533 5531 5529 5526 5522 5518 5513 5507 5500 5491 5481 5470 5459 5446 5432 5415 5398 5382 5374 5368 5364 5366 5369 5371
5530 5531 5532 5533 5534 5534 5535 5535 5536 5536 5535 5535 5535 5535 5534 5533 5533 5532 5531 5529 5527 5525 5523 5520 5515 5510 5505 5498 5490 5481 5470 5459 5447 5433 5417 5400 5384 5372 5364 5361 5364 5368 5371 5373
5520 5522 5524 5525 5526 5527 5528 5528 5528 5528 5528 5528 5528 5528 5527 5527 5527 5526 5525 5523 5522 5519 5516 5512 5508 5502 5496 5489 5481 5471 5461 5450 5437 5420 5404 5389 5377 5367 5364 5365 5369 5372 5374 5376